[TLELIST] Archives

 

Current TLEs

April 22nd 2006 PDT

HST 1 20580U 90037B 06111.20890754 .00000440 00000-0 21505-4 0 5922 2 20580 028.4677 061.3171 0003595 297.9997 062.0230 15.00011015676538 ISS (ZARYA) 1 25544U 98067A 06112.49183144 .00013402 00000-0 89872-4 0 7822 2 25544 051.6391 114.1672 0008928 136.3624 306.4928 15.75575664424385 CXO 1 25867U 99040B 06112.25000000 .00000000 00000-0 00000+0 0 9176 2 25867 059.2176 097.7612 5794290 292.2390 002.2092 00.37794857 1214 __ These 2-Line Elements (TLEs) are direct from DoD/USSTRATCOM/US Space Command w ...Continue Reading

Current TLEs

April 21st 2006 PDT

HST 1 20580U 90037B 06110.94276567 +.00000515 +00000-0 +27426-4 0 06115 2 20580 028.4675 063.0532 0003660 294.9912 065.0307 15.00011226676490 ISS (ZARYA) 1 25544U 98067A 06111.48646925 .00016205 00000-0 10784-3 0 7763 2 25544 051.6388 119.3448 0009016 132.9752 003.6094 15.75555967424229 CXO 1 25867U 99040B 06112.25000000 .00000000 00000-0 00000+0 0 9176 2 25867 059.2176 097.7612 5794290 292.2390 002.2092 00.37794857 1214 ...Continue Reading

Current TLEs

April 20th 2006 PDT

HST 1 20580U 90037B 06109.94473380 +.00000634 +00000-0 +36763-4 0 05941 2 20580 028.4673 069.5588 0003678 284.9703 075.0487 15.00011099676348 ISS (ZARYA) 1 25544U 98067A 06109.95363748 +.00010312 +00000-0 +70379-4 0 07682 2 25544 051.6389 127.2313 0009116 128.4292 308.1995 15.75496992423986 CXO 1 25867U 99040B 06112.25000000 .00000000 00000-0 00000+0 0 9176 2 25867 059.2176 097.7612 5794290 292.2390 002.2092 00.37794857 1214 ...Continue Reading

Current TLEs

April 19th 2006 PDT

HST 1 20580U 90037B 06107.28331398 +.00000992 +00000-0 +64887-4 0 06089 2 20580 028.4677 086.9027 0003829 253.2380 106.7785 15.00009508675941 ISS (ZARYA) 1 25544U 98067A 06107.92315590 +.00018528 +00000-0 +12306-3 0 07546 2 25544 051.6404 137.6796 0008955 120.1972 312.4078 15.75479631423664 CXO 1 25867U 99040B 06109.54166667 .00000000 00000-0 00000+0 0 9165 2 25867 059.2080 097.7890 5788390 292.3153 353.4821 00.37789697 1215 ...Continue Reading

Update to TLE generation and TLE mailing system

April 18th 2006 PDT

Subscribers, We have now fully automated the entire TLE system and we have full range of TLE sets being produced every 6 hours, 365 days per year. We have now two online locations for 'live' TLE data: Primary site: http://www.tle.info/data/ Secondary site: http://www.idb.com.au/dcottle/files/TLE_DATA/ As a result of these changes this email list is also now totally automated for TLE transmission of data. A new compiled set of TLEs is prepared and then sent every morning US Time. These changes will provide a much ...Continue Reading

Current TLEs

April 18th 2006 PDT

HST 1 20580U 90037B 06107.28331398 +.00000992 +00000-0 +64887-4 0 06089 2 20580 028.4677 086.9027 0003829 253.2380 106.7785 15.00009508675941 ISS (ZARYA) 1 25544U 98067A 06107.92315590 +.00018528 +00000-0 +12306-3 0 07546 2 25544 051.6404 137.6796 0008955 120.1972 312.4078 15.75479631423664 CXO 1 25867U 99040B 06109.54166667 .00000000 00000-0 00000+0 0 9165 2 25867 059.2080 097.7890 5788390 292.3153 353.4821 00.37789697 1215 ...Continue Reading

Current TLEs <17 APR 2006>

April 17th 2006 PDT

HST 1 20580U 90037B 06106.28528115 .00001010 00000-0 66293-4 0 5896 2 20580 28.4678 93.4069 0004030 239.9590 120.0597 15.00007887675791 ISS 1 25544U 98067A 06107.29426041 .00020314 00000-0 13456-3 0 7497 2 25544 51.6397 140.9169 0009341 119.9909 343.3425 15.75464177423569 CHANDRA 1 25867U 99040B 06106.91666667 .00000000 00000-0 00000+0 0 9157 2 25867 59.1796 97.8073 5788721 292.4075 356.0526 0.37797485 1219 These 2-Line Elements (TLEs) ...Continue Reading

Current TLEs <30 MAR 2006>

March 30th 2006 PDT

HST 1 20580U 90037B 06088.65326496 .00000507 00000-0 26798-4 0 5766 2 20580 28.4664 208.3459 0003542 65.5931 294.5026 14.99990689673144 ISS 1 25544U 98067A 06089.45535476 .00012719 00000-0 88621-4 0 6314 2 25544 51.6426 232.6626 0009134 61.1837 342.5990 15.74741255420757 CHANDRA 1 25867U 99040B 06088.41666667 .00000000 00000-0 00000+0 0 9061 2 25867 58.9972 98.3234 5789426 292.5571 357.3644 0.37810619 1212 These 2-Line Elements (TLEs) ...Continue Reading

Current TLEs <28 MAR 2006>

March 28th 2006 PDT

HST 1 20580U 90037B 06085.72566234 .00000566 00000-0 31463-4 0 5745 2 20580 28.4663 227.4294 0003150 33.6988 326.3790 14.99988823672705 ISS 1 25544U 98067A 06087.37041709 .00012455 00000-0 87083-4 0 6176 2 25544 51.6426 243.3811 0009136 53.3007 43.0592 15.74684628420421 CHANDRA 1 25867U 99040B 06085.79166667 .00000000 00000-0 00000+0 0 9053 2 25867 58.9740 98.4427 5781007 292.5074 0.0857 0.37799320 1218 These 2-Line Elements (TLEs) ...Continue Reading

Current TLEs <26 MAR 2006>

March 26th 2006 PDT

HST 1 20580U 90037B 06084.52800678 .00000447 00000-0 22098-4 0 5736 2 20580 28.4664 235.2386 0003174 20.7604 339.3119 14.99987564672523 ISS 1 25544U 98067A 06085.33476119 .00011909 00000-0 83668-4 0 6052 2 25544 51.6427 253.8438 0008937 46.5658 22.3459 15.74629864420105 CHANDRA 1 25867U 99040B 06083.12500000 .00000000 00000-0 00000+0 0 9040 2 25867 58.9734 98.4923 5770886 292.5590 357.0461 0.37788666 1215 These 2-Line Elements (TLEs) ...Continue Reading
  • This mailing list is a public mailing list - anyone may join or leave, at any time.
  • This mailing list is announce-only.

International Space Station (ISS) / Hubble Space Telescope (HST) / Chandra X-Ray Observatory Orbital Data via EMAIL

Privacy Policy:

Private list